This is the latest recevied weather packets stored in our database for station/object OH2HCY-3. If no packets are shown the sender has not sent any weather packets the latest 10 day(s).
| Time | Temp. | Humidity | Pressure | Rain* | Wind** | Luminosity | Snow |
|---|---|---|---|---|---|---|---|
| 1777663300 | 6.67° C | 75% | 1016.2 hPa | - | - | - | - |
| 1777662205 | 6.67° C | 74% | 1016.4 hPa | - | - | - | - |
| 1777661220 | 7.22° C | 72% | 1016.4 hPa | - | - | - | - |
| 1777660236 | 7.78° C | 68% | - | - | - | - | - |
| 1777660230 | 7.78° C | 68% | 1016.6 hPa | - | - | - | - |
| 1777659075 | 9.44° C | 62% | 1016.6 hPa | - | - | - | - |
| 1777658073 | 10° C | 60% | 1016.7 hPa | - | - | - | - |
| 1777656909 | 10.56° C | 58% | 1016.9 hPa | - | - | - | - |
| 1777655860 | 11.11° C | 56% | 1016.9 hPa | - | - | - | - |
| 1777654707 | - | 55% | 1016.9 hPa | - | - | - | - |
| 1777654700 | 12.22° C | 55% | 1016.9 hPa | - | - | - | - |
| 1777653655 | 12.78° C | 53% | 1017.1 hPa | - | - | - | - |
| 1777652659 | 12.78° C | 51% | 1017.3 hPa | - | - | - | - |
| 1777651493 | 13.33° C | 50% | 1017.4 hPa | - | - | - | - |
| 1777651488 | 13.33° C | 50% | 1017.4 hPa | - | - | - | - |
| 1777650428 | 13.33° C | 51% | 1017.6 hPa | - | - | - | - |
| 1777649402 | 14.44° C | 46% | 1017.7 hPa | - | - | - | - |
| 1777648358 | 15.56° C | 42% | 1017.8 hPa | - | - | - | - |
| 1777648355 | 15.56° C | 42% | 1017.8 hPa | - | - | - | - |
| 1777647335 | 16.11° C | 40% | 1017.9 hPa | - | - | - | - |
| 1777646227 | 16.11° C | 41% | 1018 hPa | - | - | - | - |
| 1777646222 | 16.11° C | 41% | 1018 hPa | - | - | - | - |
| 1777645103 | 15.56° C | 41% | 1018.1 hPa | - | - | - | - |
| 1777643997 | 16.11° C | 40% | 1018.2 hPa | - | - | - | - |
| 1777642935 | 16.11° C | 41% | 1018.4 hPa | - | - | - | - |
* Rain since midnight (hover to see other rain measurements)
** Current wind speed in m/s (hover to see current wind gust speed)